{"data":{"norad_id":60525,"epoch":"2026-05-24T22:13:04.357632Z","epoch_age_seconds":81778,"freshness":"FRESH","line1":"1 60525U 24149BK  26144.92574488  .00017783  00000+0  39037-3 0  9992","line2":"2 60525  97.3718 230.5866 0005057  19.3924 340.7515 15.44090034 98888","mean_motion":15.44090034,"eccentricity":0.0005057,"inclination_deg":97.3718,"raan_deg":230.5866,"arg_perigee_deg":19.3924,"mean_anomaly_deg":340.7515,"bstar":0.00039037,"rev_number":9888,"period_min":93.258810580472,"perigee_km":430.60821557924,"apogee_km":437.49806468697,"semimajor_km":6812.1901401331,"source":"CELESTRAK","updated_at":"2026-05-25T13:38:02.125066Z"}}